Theta_e
315 316 317 317 317 317 317 316 316 316 316 316 316 315 315 316 316 307 301 309 311 314 316 308 306 305 305 304 311 313 300 298 300 301 304 311 309 314 316 313 315 317 319 322 331
317 318 317 317 316 316 316 316 316 316 316 316 315 315 315 314 305 300 310 314 314 314 307 304 302 303 299 301 306 304 297 297 302 305 306 308 309 311 310 310 311 314 319 325 329
316 316 316 316 316 316 315 316 316 316 316 316 315 315 314 313 301 298 313 314 313 313 306 307 305 300 296 301 303 302 296 300 303 306 306 304 306 310 307 305 309 309 313 317 322
315 314 314 314 315 315 315 315 315 316 316 315 315 315 313 306 291 303 311 312 312 308 304 304 301 296 294 293 299 294 298 301 302 302 300 299 302 301 303 304 308 310 313 316 316
315 313 313 313 314 315 315 315 315 315 315 314 315 314 307 298 297 306 311 310 306 305 301 300 297 297 292 294 296 294 295 297 298 297 296 296 294 294 295 299 301 303 307 311 311
315 313 313 312 313 314 314 314 314 315 314 314 315 312 301 293 305 307 306 305 305 303 301 301 298 300 297 294 293 297 296 295 295 295 296 293 294 295 297 301 302 302 301 303 307
314 314 312 312 313 313 314 314 314 314 313 314 314 307 298 295 304 306 306 304 305 304 300 303 303 298 297 293 297 296 291 294 295 294 292 293 288 290 298 300 298 299 300 301 302
314 315 314 313 313 313 314 314 313 313 313 313 312 304 294 303 306 304 305 303 306 306 304 304 304 300 298 298 295 290 291 287 292 292 292 291 284 292 296 294 293 295 296 296 298
315 314 314 313 313 313 313 312 309 311 311 311 305 302 292 304 299 304 304 300 302 302 303 304 303 297 296 290 288 289 283 284 286 292 290 289 285 291 295 294 293 294 295 296 297
315 314 313 312 313 312 311 310 308 304 304 303 300 295 295 293 299 301 304 303 298 298 297 296 296 292 291 287 281 281 282 284 284 288 290 288 287 291 293 293 293 294 295 296 296
314 314 314 312 311 308 306 303 298 297 299 293 293 292 294 299 302 298 302 300 298 295 289 292 290 284 285 286 286 285 284 283 287 290 287 287 287 290 293 293 293 294 295 295 297
314 314 313 311 308 307 306 297 298 299 290 296 295 295 298 299 292 296 302 294 292 288 291 289 285 287 288 288 286 286 284 285 287 289 288 287 286 290 292 292 293 293 294 295 297
313 313 313 312 307 306 302 300 305 303 290 291 294 294 295 296 291 292 297 294 290 288 287 285 287 288 287 286 285 285 284 284 283 287 289 287 284 287 291 293 294 295 296 297 297
313 313 313 309 302 303 300 304 305 300 288 286 288 293 294 294 289 296 297 294 291 285 287 287 289 286 285 284 285 281 287 286 284 283 279 287 276 284 288 289 292 293 295 297 300
313 313 313 308 304 300 303 305 303 297 281 285 287 296 293 291 290 292 296 293 286 286 287 285 285 285 284 285 287 283 288 286 285 283 282 283 278 283 288 286 289 292 294 298 300
313 313 308 304 306 304 305 302 299 287 281 283 287 287 287 289 289 291 290 294 292 288 289 287 290 287 287 288 288 289 286 286 287 284 276 281 281 281 284 286 289 292 294 297 298
313 310 307 305 301 305 303 298 285 281 283 283 283 285 285 285 285 286 285 286 285 282 282 285 285 288 289 285 289 287 283 277 276 276 276 282 280 281 287 290 290 291 293 296 299
311 306 301 304 305 304 299 290 278 284 284 284 284 284 282 284 284 283 284 283 287 285 282 279 278 284 288 285 283 283 282 276 269 271 275 282 276 282 289 291 293 293 294 296 297
306 305 303 303 303 301 294 282 287 286 284 283 282 281 282 283 282 282 282 282 285 286 280 279 279 286 286 287 285 283 280 285 277 278 275 278 282 287 289 290 291 290 292 293 295
301 298 298 302 302 299 289 284 285 284 285 284 284 283 281 281 281 281 281 285 284 287 287 283 276 283 284 286 287 284 287 278 280 271 269 275 277 279 285 285 288 289 291 292 293
296 292 297 301 300 293 284 285 284 284 287 283 287 281 282 281 282 281 281 284 287 286 287 284 279 281 283 282 282 282 281 282 282 278 272 270 276 287 285 286 288 290 291 291 290
294 286 297 297 288 286 285 284 284 284 287 285 285 285 283 282 281 280 280 282 287 288 282 285 280 276 279 284 286 284 281 282 276 274 277 274 274 288 289 290 289 289 290 290 291
289 287 295 294 283 284 282 282 285 284 285 284 283 285 284 282 279 281 280 284 287 287 284 284 279 274 280 282 284 281 283 283 282 280 273 271 274 288 289 289 290 289 288 289 289
288 282 286 289 291 288 283 283 282 287 285 286 285 285 282 280 283 279 279 283 285 285 286 285 279 276 274 278 280 277 279 281 279 274 274 276 277 282 286 286 288 287 286 287 288
289 285 288 282 284 285 286 286 282 280 285 286 283 283 281 278 280 277 280 282 284 286 285 284 275 278 278 279 279 278 277 278 276 278 274 277 278 282 285 287 286 286 286 286 286
285 284 286 287 288 285 283 283 282 283 283 281 282 283 283 280 282 278 281 281 281 284 283 284 276 275 273 277 276 274 277 278 278 278 278 279 279 287 289 287 285 284 285 284 285
291 290 290 286 285 283 284 285 283 284 285 287 284 284 282 284 286 285 286 285 284 282 281 279 277 274 271 274 272 271 274 278 280 282 281 277 282 287 286 284 284 284 284 284 285
Wind_Speed
4 6 7 8 8 8 8 9 10 10 11 12 14 14 14 12 12 9 13 12 13 16 17 12 4 6 6 6 7 8 9 14 20 21 20 15 16 14 12 10 13 10 10 10 5
8 8 9 9 10 9 9 8 8 10 11 12 13 13 13 8 3 13 9 16 15 14 10 10 9 8 5 6 4 9 12 16 15 15 14 15 15 15 19 19 19 18 16 11 7
5 6 7 9 9 10 10 10 10 11 12 13 14 14 13 7 4 6 15 15 14 14 8 7 6 4 4 5 6 5 16 15 12 10 9 12 14 15 19 22 18 19 17 17 8
5 6 6 7 8 8 8 8 8 9 11 13 14 15 11 6 2 7 14 14 12 11 7 5 4 1 2 4 2 10 12 8 9 12 11 16 18 19 20 22 22 24 23 22 21
5 6 5 6 7 7 8 8 8 9 10 13 13 14 5 3 6 8 10 8 7 6 8 7 8 5 2 3 7 11 9 9 12 14 15 16 18 21 23 23 22 24 23 22 23
7 7 6 7 8 8 9 9 9 9 10 12 13 15 4 2 5 8 10 6 9 8 7 8 5 5 1 4 5 6 11 15 13 13 12 15 15 15 17 15 13 17 21 19 21
7 6 6 6 7 8 9 10 10 11 10 10 9 5 9 5 3 8 9 4 6 7 5 5 5 5 5 6 3 9 12 12 2 3 15 14 17 9 3 9 14 15 14 17 19
6 8 8 6 6 7 8 9 12 13 9 7 7 4 5 2 5 10 11 1 3 4 4 3 4 3 4 7 5 7 5 6 5 11 5 10 13 5 14 15 22 24 22 21 22
7 7 7 6 5 6 8 9 7 6 5 7 5 3 5 2 4 9 9 8 6 2 3 1 3 4 2 7 6 4 8 13 12 6 10 8 22 17 22 22 22 23 24 23 22
7 7 7 6 6 8 8 7 5 6 6 5 2 4 3 2 2 7 9 7 5 6 3 2 2 3 1 8 5 11 13 12 15 11 20 21 26 22 21 24 26 26 24 23 22
6 8 6 3 6 7 6 3 5 4 7 6 5 4 2 4 2 5 6 7 6 3 4 2 4 4 4 4 5 10 13 16 17 20 17 16 25 25 23 24 25 23 21 20 20
4 7 7 1 4 6 5 2 4 4 2 2 2 3 2 4 2 5 9 4 4 7 8 6 2 3 3 2 6 11 14 13 14 11 19 20 27 27 23 21 22 22 21 21 20
4 5 4 4 2 2 4 3 3 3 4 3 0 3 3 5 2 4 8 2 3 7 9 7 5 2 5 10 9 10 14 11 18 21 20 17 19 11 21 19 16 19 18 15 16
6 6 6 3 4 2 2 3 3 2 2 6 4 2 3 2 2 3 4 3 2 2 8 7 4 3 8 11 5 10 7 14 19 17 9 13 15 12 17 21 22 17 10 12 13
7 7 8 7 3 3 5 5 1 5 4 4 4 2 2 3 2 3 2 2 3 3 3 4 5 8 9 3 3 8 13 18 20 17 14 13 7 12 27 22 17 17 15 13 14
8 10 11 3 2 3 4 4 2 2 6 5 1 2 3 0 1 3 2 2 1 6 7 13 3 4 4 7 10 13 15 22 11 2 6 12 12 18 25 20 20 21 19 18 18
10 12 9 1 1 7 4 3 3 6 1 4 4 2 1 1 2 1 3 1 2 4 3 7 5 3 4 8 6 5 13 6 4 7 14 14 18 22 27 22 22 22 22 21 19
16 13 2 2 5 6 3 3 4 1 4 1 3 3 4 2 2 1 3 4 3 3 4 5 3 6 7 3 6 12 4 3 9 12 20 18 13 11 22 23 21 18 20 20 24
18 5 4 4 5 3 3 1 5 3 4 6 4 4 4 3 3 2 5 3 3 2 4 5 4 3 6 7 4 3 5 6 7 16 15 10 23 20 16 11 16 23 21 24 24
5 3 4 6 5 4 3 5 4 0 5 3 5 4 6 6 3 2 5 5 5 4 1 1 8 1 3 3 10 12 8 4 5 8 15 15 26 14 16 17 22 21 25 25 24
4 3 3 5 4 3 4 7 4 4 5 4 2 4 4 5 5 3 2 5 5 7 2 2 3 2 4 6 5 5 6 7 9 7 9 14 15 7 12 23 17 26 26 24 27
5 4 5 4 5 2 5 7 3 7 6 4 3 4 7 7 5 5 6 3 4 8 5 4 3 7 9 13 10 8 11 11 7 9 13 14 26 22 18 21 25 27 23 27 27
7 3 1 3 7 6 1 3 5 7 7 8 8 5 4 6 4 6 4 1 8 7 4 6 3 7 5 3 3 5 8 10 14 12 20 13 15 12 24 27 27 22 24 24 26
5 6 2 3 4 9 7 5 6 10 4 6 4 6 4 6 6 2 4 4 8 5 4 6 4 10 10 13 13 15 17 17 17 12 17 24 33 31 24 30 27 23 25 21 24
4 5 7 9 12 11 11 8 9 9 7 11 7 11 9 7 7 6 7 4 7 9 8 3 6 10 18 21 21 24 25 23 21 24 19 31 31 28 28 26 27 18 22 25 22
8 6 2 4 10 19 12 12 14 9 14 8 11 15 14 8 9 8 9 8 7 12 11 6 4 2 10 8 10 17 24 25 25 25 24 27 33 24 21 24 24 24 18 27 21
1 1 4 9 8 14 16 16 16 11 12 8 18 9 17 18 8 2 6 3 2 8 12 6 4 2 8 7 12 10 11 7 12 13 14 21 23 20 22 24 22 18 20 24 21
Wind_Direction
355 345 343 348 350 351 352 355 354 352 349 345 344 344 343 329 299 60 39 344 327 325 308 324 282 321 238 245 247 249 246 249 255 260 272 268 262 263 268 268 274 251 260 302 52
336 334 341 345 346 345 343 342 342 341 341 342 342 342 341 320 270 52 360 336 334 331 336 352 350 327 229 243 225 234 238 257 274 305 325 328 308 294 291 283 278 264 258 242 216
349 340 335 331 329 327 328 334 337 337 337 337 336 336 334 294 234 25 356 343 341 318 326 311 310 317 253 275 209 271 251 286 312 7 332 300 287 285 279 271 274 282 282 285 251
323 325 330 330 324 319 315 318 323 328 330 333 334 336 328 231 325 10 345 335 320 321 338 329 331 306 273 255 7 271 253 294 307 312 305 291 295 281 272 279 294 288 289 289 279
325 325 328 331 325 322 317 322 326 331 330 330 331 336 276 127 48 352 332 333 329 344 16 8 21 346 336 314 301 251 294 307 290 292 287 288 278 280 277 278 278 278 275 275 280
328 334 329 327 318 318 322 320 320 324 324 327 331 321 260 90 342 349 347 334 1 353 25 25 24 355 324 303 282 349 292 289 291 291 294 285 291 287 275 293 306 290 281 281 285
321 320 312 315 323 322 323 325 323 318 313 313 322 312 61 67 337 353 343 355 349 354 1 26 353 316 338 291 334 289 292 289 260 294 308 348 281 251 109 286 287 288 283 282 278
311 312 304 306 318 327 326 327 327 316 298 290 294 284 72 29 349 1 351 8 14 10 353 352 337 323 333 317 258 298 281 330 146 333 328 340 291 341 326 302 297 290 285 281 274
312 324 313 312 327 330 321 326 334 337 316 290 249 270 107 174 17 347 355 338 322 14 37 30 291 350 282 315 278 201 324 319 322 301 312 317 297 291 300 292 292 289 285 283 279
306 310 312 317 327 320 328 315 329 285 249 268 228 184 95 14 350 332 354 328 326 314 225 316 228 245 213 358 335 311 312 307 303 316 311 304 285 292 299 293 289 287 284 282 280
296 305 303 307 331 345 324 268 221 170 39 14 7 357 56 352 152 22 2 322 310 268 343 18 257 25 18 4 308 295 295 297 303 307 308 297 293 295 299 292 284 286 288 286 285
296 309 302 296 24 341 297 319 31 22 236 11 330 312 326 334 164 40 345 5 338 327 321 220 215 59 11 332 301 295 293 288 292 303 309 295 294 290 284 284 296 295 293 292 293
267 273 253 241 298 263 27 58 25 348 265 156 282 286 326 300 58 28 357 5 9 315 332 295 27 350 325 316 304 294 300 309 304 311 297 303 294 311 303 287 296 293 284 290 289
242 239 192 170 269 125 115 87 2 325 281 156 180 129 238 303 129 19 16 359 172 337 316 279 77 306 301 300 290 304 357 308 302 316 309 340 293 307 294 309 300 300 314 290 292
223 211 183 200 21 248 89 118 320 256 297 127 130 46 274 305 356 99 26 195 321 313 268 56 318 308 296 310 287 283 320 300 291 286 301 291 251 284 299 306 312 317 315 291 279
209 179 140 167 196 78 126 126 223 295 243 155 162 183 215 67 91 333 254 143 30 290 243 265 294 266 300 299 263 292 293 292 270 311 242 253 251 299 299 302 316 299 306 297 298
187 162 182 129 104 139 161 216 35 233 47 176 167 174 273 164 177 63 305 126 351 303 297 317 208 203 257 288 187 256 329 309 272 280 284 299 308 270 290 294 319 310 306 306 293
150 145 97 78 134 147 195 52 221 62 215 124 153 156 245 178 171 185 222 214 168 266 288 320 226 193 167 267 311 307 296 316 303 311 301 301 259 272 309 298 300 320 315 316 312
139 152 166 135 149 193 156 190 248 187 138 157 148 193 176 185 275 258 229 254 127 219 290 304 263 152 237 273 241 109 245 339 275 262 272 265 276 293 296 301 321 321 310 310 305
141 159 134 149 169 203 97 242 258 32 126 177 214 197 185 176 222 168 202 152 171 199 296 77 284 185 295 273 230 239 354 275 231 290 301 288 296 284 316 318 314 310 313 315 329
104 158 111 172 209 179 208 208 240 202 184 203 238 171 209 184 178 223 216 149 195 171 223 220 259 215 294 199 283 206 248 216 262 264 295 305 306 313 318 307 311 318 321 332 310
131 178 141 195 177 181 200 185 199 182 187 206 193 214 194 186 183 228 232 213 152 152 194 194 281 274 262 302 300 261 270 280 270 284 285 294 273 290 281 326 318 321 333 317 313
125 109 126 240 202 208 123 224 236 175 195 188 200 200 174 187 221 218 217 220 170 192 184 171 195 297 271 159 114 218 231 237 264 274 265 275 267 290 312 311 321 326 324 316 312
131 142 145 215 239 226 170 203 217 208 222 193 162 140 154 200 212 235 231 228 197 194 196 166 233 242 259 296 328 286 274 276 272 270 275 258 278 289 312 313 315 330 325 311 316
154 186 177 178 210 208 192 175 175 187 220 195 196 203 176 183 201 224 221 193 199 196 194 225 257 248 264 273 280 279 281 277 255 255 254 270 284 293 303 314 320 337 317 325 324
142 155 200 165 170 185 191 212 197 177 169 203 224 200 199 184 187 187 178 218 197 184 193 182 265 314 284 259 275 281 271 267 264 265 257 265 272 288 315 316 320 339 324 326 329
113 65 155 157 159 174 208 204 205 153 208 203 207 194 206 223 213 68 173 292 235 186 192 184 244 292 269 347 304 265 254 236 265 252 264 275 286 314 311 320 329 320 329 325 331